Kenai, AK

5:21 AM AKST on December 03, 2016 (GMT -0900)
Kenai Municipal

Weather History for PAEN - August, 2014

Change the Weather History Date:

Tuesday, August 5, 2014

  Actual Average Record
Temperature  
Mean Temperature 59 °F -  
Max Temperature 70 °F 62 °F 83 °F (1968)
Min Temperature 48 °F 48 °F 35 °F (2003)
Degree Days  
Heating Degree Days 6    
Growing Degree Days 9 (Base 50)    
Moisture  
Dew Point 46 °F    
Average Humidity 62    
Maximum Humidity 86    
Minimum Humidity 39    
Precipitation  
Precipitation 0.00 in - - ()
Sea Level Pressure  
Sea Level Pressure 29.84 in    
Wind  
Wind Speed 8 mph (NE)    
Max Wind Speed 15 mph    
Max Gust Speed 21 mph    
Visibility 10 miles    
Events      
Averages and records for this station are not official NWS values.
T = Trace of Precipitation, MM = Missing Value Source: NWS Daily Summary

Daily Weather History Graph

Daily Weather History Graph

Search for Another Location

Airport or City:

Trip Planner

Search our weather history database for the weather conditions in past years. The results will help you decide how hot, cold, wet, or windy it might be!

Date:

Astronomy

Aug. 05, 2014 Rise Set
Actual Time 5:52 AM AKDT 10:27 PM AKDT
Civil Twilight 4:52 AM AKDT 11:26 PM AKDT
Nautical Twilight 2:54 AM AKDT 1:17 AM AKDT
Astronomical Twilight Sun does not rise Sun does not rise
Moon 6:02 PM AKDT (8/5) 12:47 AM AKDT (8/5)
Length of Visible Light 18h 33m
Length of Day
16h 35m
Waxing Gibbous, 69% of the Moon is Illuminated
Aug 5
Waxing Gibbous
Aug 10
Full
Aug 17
Last Quarter
Aug 25
New
Sep 2
First Quarter

Hourly Weather History & Observations

Time (AKDT) Temp. Dew Point Humidity Pressure Visibility Wind Dir Wind Speed Gust Speed Precip Events Conditions
12:53 AM 55.0 °F 46.0 °F 72% 29.74 in 10.0 mi NNE 10.4 mph - N/A   Clear
1:53 AM 55.4 °F 44.6 °F 67% 29.75 in 10.0 mi NE 8.1 mph - N/A   Clear
2:53 AM 52.0 °F 45.0 °F 77% 29.77 in 10.0 mi ENE 4.6 mph - N/A   Clear
3:53 AM 48.9 °F 45.0 °F 86% 29.78 in 10.0 mi NE 3.5 mph - N/A   Clear
4:53 AM 50.0 °F 45.0 °F 83% 29.78 in 10.0 mi NE 3.5 mph - N/A   Mostly Cloudy
5:53 AM 51.1 °F 46.0 °F 83% 29.79 in 10.0 mi North 3.5 mph - N/A   Mostly Cloudy
6:53 AM 52.0 °F 46.9 °F 83% 29.80 in 10.0 mi NE 6.9 mph - N/A   Mostly Cloudy
7:53 AM 55.9 °F 48.0 °F 75% 29.81 in 10.0 mi NNE 9.2 mph - N/A   Mostly Cloudy
8:53 AM 63.0 °F 46.9 °F 56% 29.82 in 10.0 mi NE 15.0 mph - N/A   Mostly Cloudy
9:53 AM 64.0 °F 45.0 °F 50% 29.83 in 10.0 mi NE 13.8 mph - N/A   Clear
10:53 AM 66.0 °F 44.1 °F 45% 29.83 in 10.0 mi NE 12.7 mph - N/A   Clear
11:53 AM 66.9 °F 44.1 °F 44% 29.83 in 10.0 mi NE 12.7 mph 20.7 mph N/A   Scattered Clouds
12:53 PM 69.1 °F 45.0 °F 42% 29.84 in 10.0 mi NE 6.9 mph 19.6 mph N/A   Scattered Clouds
1:53 PM 68.0 °F 45.0 °F 43% 29.85 in 10.0 mi NNE 10.4 mph 16.1 mph N/A   Overcast
2:53 PM 66.9 °F 45.0 °F 45% 29.85 in 10.0 mi NE 10.4 mph - N/A   Overcast
3:53 PM 70.0 °F 44.1 °F 39% 29.86 in 10.0 mi East 5.8 mph - N/A   Mostly Cloudy
4:53 PM 68.0 °F 45.0 °F 43% 29.86 in 10.0 mi WSW 6.9 mph - N/A   Overcast
5:53 PM 66.9 °F 50.0 °F 54% 29.87 in 10.0 mi NW 8.1 mph - N/A   Scattered Clouds
6:53 PM 68.0 °F 48.9 °F 50% 29.88 in 10.0 mi North 5.8 mph - N/A   Overcast
7:53 PM 64.4 °F 50.0 °F 59% 29.88 in 10.0 mi Calm Calm - N/A   Overcast
8:53 PM 64.0 °F 46.0 °F 52% 29.90 in 10.0 mi South 9.2 mph - N/A   Mostly Cloudy
9:53 PM 59.0 °F 50.0 °F 72% 29.92 in 10.0 mi South 8.1 mph - N/A   Mostly Cloudy
10:53 PM 57.0 °F 50.0 °F 77% 29.94 in 10.0 mi South 6.9 mph - N/A   Mostly Cloudy
11:53 PM 55.0 °F 50.0 °F 83% 29.94 in 10.0 mi SSE 5.8 mph - N/A   Clear